Regional Weather Roundup
Issued by NWS

Home | Current Version | Previous Version | Graphics & Text | Print | Product List | Glossary On
Versions: 1 2 3 4 5 6 7 8 9 10 11 12 13 14 15 16 17 18 19 20 21 22 23 24 25 26 27 28 29 30 31 32 33 34 35 36 37 38 39 40 41 42 43 44 45 46 47 48 49 50
000
ASUS45 KBOI 010510
RWRID
WEATHER ROUNDUP FOR IDAHO
NATIONAL WEATHER SERVICE BOISE ID
1000 PM MST SAT JAN 31 2015

NOTE: "FAIR" INDICATES FEW OR NO CLOUDS BELOW 12000 FEET
WITH NO SIGNIFICANT WEATHER AND/OR OBSTRUCTIONS TO VISIBILITY

IDZ012-014-010600-
SOUTHWEST IDAHO


CITY           SKY/WX    TMP DP  RH WIND       PRES   REMARKS
BOISE          PTCLDY    33  28  81 CALM      30.17R
CALDWELL       PTCLDY    36  25  64 W3        30.19S
MOUNTAIN HOME  PTCLDY    35  29  78 VRB1      30.17S
$$

IDZ016-017-010600-
SOUTHCENTRAL IDAHO


CITY           SKY/WX    TMP DP  RH WIND       PRES   REMARKS
BURLEY         CLEAR     26  23  88 S3        30.14F
JEROME         CLEAR     30  26  85 E9        30.15F WCI  22
TWIN FALLS     CLEAR     37  27  67 S14       30.15F WCI  28
$$

IDZ019>023-010600-
SOUTHEAST IDAHO


CITY           SKY/WX    TMP DP  RH WIND       PRES   REMARKS
IDAHO FALLS    PTCLDY    27  23  85 CALM      30.15S
POCATELLO      CLOUDY    32  30  92 SW10      30.17S WCI  24
REXBURG        CLOUDY    28  26  92 CALM      30.14R
$$

IDZ006-010-011-018-031-032-010600-
CENTRAL IDAHO MOUNTAINS


CITY           SKY/WX    TMP DP  RH WIND       PRES   REMARKS
MCCALL         CLOUDY    29  16  58 N5        30.15R WCI  24
HAILEY         MOCLDY    19  19 100 NW6       30.15R WCI  11
STANLEY          N/A     11   3  70 E3        30.17R
SALMON         CLOUDY    21  18  86 CALM      30.22R
CHALLIS        PTCLDY    22  19  89 CALM      30.17R
$$

IDZ002-004-006-007-026-010600-
NORTHERN IDAHO


CITY           SKY/WX    TMP DP  RH WIND       PRES   REMARKS
LEWISTON       CLOUDY    34  30  85 CALM      30.30R
LOWELL           N/A     31  27  85 CALM      30.33F
COEUR D`ALENE  CLOUDY    30  27  86 CALM      30.28S
MULLAN PASS    CLOUDY    22  18  85 CALM      30.12S
$$


USA.gov is the U.S. government's official web portal to all federal, state and local government web resources and services.